BIMS4 Weather Reports


time (UTC)temp
F
wind
direction
speed
knots
gust
knots
rain 1hr
in
rain 24hr
in
rain mn
in
humidity
%
barometer
mb
20260505124941 58 103 0.9 5.2 0.00 0.00 0.00 69 1012.1
20260505124444 58 300 0.9 5.2 0.00 0.00 0.00 69 1012.1
20260505124235 58 296 0.9 4.3 0.00 0.00 0.00 69 1012.1
20260505123439 58 276 0.9 5.2 0.00 0.00 0.00 69 1012.0
20260505122943 58 20 1.7 5.2 0.00 0.00 0.00 69 1012.0
20260505122440 58 304 0.9 5.2 0.00 0.00 0.00 70 1012.1
20260505121940 58 276 0.9 5.2 0.00 0.00 0.00 70 1012.3
20260505121440 58 95 0.9 3.5 0.00 0.00 0.00 71 1012.3
20260505120941 58 20 0.9 3.5 0.00 0.00 0.00 70 1012.4
20260505120442 58 297 0.9 6.1 0.00 0.00 0.00 71 1012.2
20260505115935 58 295 1.7 6.1 0.00 0.00 0.00 71 1012.3
20260505115747 58 314 0.9 6.1 0.00 0.00 0.00 71 1012.2
20260505114935 58 296 1.7 7.0 0.00 0.00 0.00 72 1012.3
20260505114434 57 292 1.7 7.0 0.00 0.00 0.00 71 1012.2
20260505113933 58 291 0.9 5.2 0.00 0.00 0.00 71 1012.2
20260505113434 57 314 0.9 3.5 0.00 0.00 0.00 71 1012.3
20260505112934 57 276 0.9 3.5 0.00 0.00 0.00 71 1012.3
20260505112435 57 316 0.9 5.2 0.00 0.00 0.00 72 1012.3
20260505111933 57 284 0.0 5.2 0.00 0.00 0.00 72 1012.4
20260505111431 56 320 0.0 0.9 0.00 0.00 0.00 73 1012.5
20260505110931 56 289 0.0 0.0 0.00 0.00 0.00 75 1012.4
20260505110434 56 281 0.0 1.7 0.00 0.00 0.00 76 1012.4
20260505101923 54 298 0.0 2.6 0.00 0.00 0.00 79 1013.0
20260505101422 53 304 0.0 1.7 0.00 0.00 0.00 80 1012.9
20260505100919 53 313 0.0 1.7 0.00 0.00 0.00 80 1012.9
20260505100419 53 81 0.0 2.6 0.00 0.00 0.00 80 1012.9
20260505100231 53 303 0.0 2.6 0.00 0.00 0.00 80 1012.8
20260505095419 53 79 0.0 2.6 0.00 0.00 0.00 81 1012.8
20260505094922 53 62 0.0 2.6 0.00 0.00 0.00 81 1012.9
20260505094759 53 1 0.0 3.5 0.00 0.00 0.00 82 1012.9
20260505094420 53 291 0.0 3.5 0.00 0.00 0.00 81 1013.0
20260505093709 53 301 0.0 1.7 0.00 0.00 0.00 82 1012.9
20260505092917 52 26 0.0 3.5 0.00 0.00 0.00 83 1013.0
20260505092418 52 58 0.0 3.5 0.00 0.00 0.00 83 1012.9
20260505091913 52 293 0.0 3.5 0.00 0.00 0.00 83 1012.9
20260505091405 52 322 0.0 3.5 0.00 0.00 0.00 83 1012.9
20260505090912 52 62 0.0 1.7 0.00 0.00 0.00 84 1012.9
20260505090405 52 106 0.0 1.7 0.00 0.00 0.00 85 1012.9
20260505085905 51 316 0.0 2.6 0.00 0.00 0.00 86 1012.8
20260505085403 51 76 0.0 3.5 0.00 0.00 0.00 87 1012.8
20260505084903 51 83 0.0 4.3 0.00 0.00 0.00 87 1012.7
20260505084403 51 67 0.0 4.3 0.00 0.00 0.00 87 1012.7
20260505083917 51 51 0.0 2.6 0.00 0.00 0.00 88 1012.7
20260505083403 51 304 0.0 2.6 0.00 0.00 0.00 88 1012.8
20260505082908 51 313 0.0 1.7 0.00 0.00 0.00 89 1012.8
20260505082627 51 326 0.0 1.7 0.00 0.00 0.00 89 1012.9
20260505081903 50 68 0.0 1.7 0.00 0.00 0.00 89 1013.0
20260505081403 50 330 0.0 3.5 0.00 0.00 0.00 90 1013.0
20260505080902 50 114 0.0 3.5 0.00 0.00 0.00 90 1013.0
20260505080402 50 305 0.0 1.7 0.00 0.00 0.00 90 1012.9
20260505075903 50 300 0.0 1.7 0.00 0.00 0.00 91 1013.0
20260505075417 50 311 0.0 1.7 0.00 0.00 0.00 91 1013.0
20260505075205 49 348 0.0 1.7 0.00 0.00 0.00 91 1013.0
20260505074404 49 291 0.0 1.7 0.00 0.00 0.00 91 1013.1
20260505073901 49 288 0.0 1.7 0.00 0.00 0.00 92 1013.2
20260505073651 49 69 0.0 1.7 0.00 0.00 0.00 92 1013.1
20260505072857 49 45 0.0 2.6 0.00 0.00 0.00 92 1013.1
20260505072356 49 101 0.0 2.6 0.00 0.00 0.00 92 1013.1
20260505071854 49 89 0.0 2.6 0.00 0.00 0.00 92 1013.2
20260505071355 49 64 0.0 2.6 0.00 0.00 0.00 92 1013.1
20260505070854 49 68 0.0 2.6 0.00 0.00 0.00 92 1013.2
20260505070702 49 276 0.0 1.7 0.00 0.00 0.00 92 1013.2
20260505065855 49 75 0.0 1.7 0.00 0.00 0.00 92 1013.2
20260505065351 49 79 0.0 1.7 0.00 0.00 0.00 92 1013.3
20260505064856 49 16 0.0 2.6 0.00 0.00 0.00 92 1013.4
20260505064351 49 64 0.0 2.6 0.00 0.00 0.00 92 1013.4
20260505063854 49 71 0.0 0.9 0.00 0.00 0.00 92 1013.4
20260505063352 49 81 0.0 4.3 0.00 0.00 0.00 92 1013.5
20260505062855 49 74 0.0 4.3 0.00 0.00 0.00 92 1013.4
20260505062350 49 74 0.0 2.6 0.00 0.00 0.00 92 1013.4
20260505061851 49 64 0.0 2.6 0.00 0.00 0.00 92 1013.3
20260505061351 49 68 0.0 2.6 0.00 0.00 0.00 91 1013.3
20260505060851 49 63 0.0 1.7 0.00 0.00 0.00 91 1013.2
20260505060347 49 35 0.0 2.6 0.00 0.00 0.00 91 1013.1
20260505055848 49 61 0.0 2.6 0.00 0.00 0.00 91 1013.2
20260505055354 49 89 0.0 1.7 0.00 0.00 0.00 91 1013.1
20260505054842 49 73 0.0 3.5 0.00 0.00 0.00 91 1013.1
20260505054639 49 86 0.0 3.5 0.00 0.00 0.00 90 1013.0
20260505053840 49 70 0.0 1.7 0.00 0.00 0.00 90 1013.0
20260505053341 49 359 0.0 1.7 0.00 0.00 0.00 90 1013.0
20260505053137 49 307 0.0 1.7 0.00 0.00 0.00 90 1012.9
20260505052340 49 310 0.0 1.7 0.00 0.00 0.00 90 1012.8
20260505051836 49 319 0.0 1.7 0.00 0.00 0.00 90 1012.9
20260505051336 49 303 0.0 1.7 0.00 0.00 0.00 90 1012.8
20260505050833 49 57 0.0 1.7 0.00 0.00 0.00 90 1012.9
20260505050658 49 9 0.0 1.7 0.00 0.00 0.00 90 1012.9
20260505041330 50 65 0.0 1.7 0.00 0.00 0.00 89 1012.8
20260505040831 50 58 0.0 0.9 0.00 0.00 0.00 89 1012.9
20260505040329 50 81 0.0 0.9 0.00 0.00 0.00 89 1012.9
20260505035830 50 76 0.0 0.9 0.00 0.00 0.00 89 1013.0
20260505035328 50 83 0.0 0.9 0.00 0.00 0.00 89 1013.0
20260505034829 50 53 0.0 0.9 0.00 0.00 0.00 89 1013.0
20260505034329 50 49 0.0 1.7 0.00 0.00 0.00 89 1012.9
20260505033846 50 40 0.0 1.7 0.00 0.00 0.00 89 1012.8
20260505033325 50 328 0.0 0.9 0.00 0.00 0.00 89 1012.9
20260505032823 50 101 0.0 0.0 0.00 0.00 0.00 89 1012.9
20260505032320 50 82 0.0 0.0 0.00 0.00 0.00 89 1012.9
20260505031818 50 47 0.0 0.9 0.00 0.00 0.00 89 1012.8
20260505031615 50 51 0.0 1.7 0.00 0.00 0.00 89 1012.8
20260505030814 50 78 0.0 1.7 0.00 0.00 0.00 89 1012.9
20260505030313 50 54 0.0 2.6 0.00 0.00 0.00 89 1012.9
20260505025812 50 61 0.0 2.6 0.00 0.00 0.00 89 1012.7
20260505025312 50 298 0.0 2.6 0.00 0.00 0.00 89 1012.8
20260505024816 50 150 0.0 2.6 0.00 0.00 0.00 89 1012.9
20260505024320 51 308 0.0 1.7 0.00 0.00 0.00 89 1012.9
20260505023817 51 305 0.0 0.9 0.00 0.00 0.00 89 1012.9
20260505023317 51 22 0.0 2.6 0.00 0.00 0.00 89 1012.9
20260505022812 51 44 0.0 2.6 0.00 0.00 0.00 89 1013.0
20260505022314 51 93 0.0 2.6 0.00 0.00 0.00 89 1013.1
20260505021808 51 102 0.0 0.9 0.00 0.00 0.00 89 1013.2
20260505021316 51 106 0.0 0.9 0.00 0.00 0.00 89 1013.2
20260505020804 51 106 0.0 2.6 0.00 0.00 0.00 89 1013.1
20260505020309 51 341 0.0 2.6 0.00 0.00 0.00 89 1013.2
20260505015806 51 42 0.0 1.7 0.00 0.00 0.00 89 1013.3
20260505015556 51 305 0.0 2.6 0.00 0.00 0.00 89 1013.2
20260505014803 51 316 0.0 2.6 0.00 0.00 0.00 89 1013.3
20260505014313 51 317 0.0 3.5 0.00 0.00 0.00 89 1013.3
20260505014112 51 110 0.9 3.5 0.00 0.00 0.00 89 1013.4
20260505013302 51 296 0.0 3.5 0.00 0.00 0.00 89 1013.4
20260505012802 51 275 0.0 1.7 0.00 0.00 0.00 89 1013.3
20260505012304 51 313 0.0 0.9 0.00 0.00 0.00 89 1013.4
20260505011804 51 287 0.0 1.7 0.00 0.00 0.00 89 1013.5
20260505011302 51 295 0.0 1.7 0.00 0.00 0.00 89 1013.5
20260505010817 51 293 0.0 1.7 0.00 0.00 0.00 89 1013.5
20260505010302 51 293 0.0 1.7 0.00 0.00 0.00 89 1013.6
20260505005805 51 324 0.0 1.7 0.00 0.00 0.00 89 1013.7
20260505005303 51 311 0.0 0.9 0.00 0.00 0.00 89 1013.6
20260505004802 51 297 0.0 2.6 0.00 0.00 0.00 89 1013.7
20260505004542 51 303 0.0 2.6 0.00 0.00 0.00 89 1013.8
20260505003802 51 292 0.0 1.7 0.00 0.00 0.00 89 1013.7
20260505003538 51 294 0.0 1.7 0.00 0.00 0.00 89 1013.7
20260505002844 52 278 0.0 1.7 0.00 0.00 0.00 89 1013.8
20260505002834 52 288 0.0 1.7 0.00 0.00 0.00 89 1013.7
20260505001758 52 291 0.0 1.7 0.00 0.00 0.00 89 1013.8
20260505001255 52 330 0.9 2.6 0.00 0.00 0.00 89 1013.9
20260505000854 52 79 0.0 2.6 0.00 0.00 0.00 89 1013.9
20260505000841 52 301 0.0 2.6 0.00 0.00 0.00 89 1013.8
20260504235758 52 303 0.0 2.6 0.00 0.00 0.00 89 1013.9
20260504235556 52 309 0.0 1.7 0.00 0.00 0.00 89 1014.0
20260504234749 52 285 0.0 2.6 0.00 0.00 0.00 88 1014.1
20260504234248 52 283 0.0 2.6 0.00 0.00 0.00 89 1014.0
20260504233746 52 309 0.0 4.3 0.00 0.00 0.00 88 1014.1
20260504233245 52 291 0.0 4.3 0.00 0.00 0.00 89 1014.1
20260504232742 53 303 0.0 1.7 0.00 0.00 0.00 89 1014.1
20260504232241 53 282 0.0 1.7 0.00 0.00 0.00 88 1014.1
20260504231738 53 284 0.0 1.7 0.00 0.00 0.00 88 1014.1
20260504231242 53 286 0.0 1.7 0.00 0.00 0.00 88 1014.1
20260504231020 53 288 0.0 1.7 0.00 0.00 0.00 88 1014.1
20260504230248 53 293 0.0 1.7 0.00 0.00 0.00 88 1014.1
20260504225734 53 297 0.0 1.7 0.00 0.00 0.00 88 1014.2
20260504225329 53 288 0.0 2.6 0.00 0.00 0.00 89 1014.2
20260504225314 53 297 0.0 1.7 0.00 0.00 0.00 88 1014.2
20260504224544 53 307 0.0 2.6 0.00 0.00 0.00 88 1014.3
20260504223732 53 289 0.0 1.7 0.00 0.00 0.00 89 1014.3
20260504223233 53 308 0.0 1.7 0.00 0.00 0.00 88 1014.3
20260504223047 53 320 0.0 0.9 0.00 0.00 0.00 88 1014.3
20260504222230 54 93 0.0 0.9 0.00 0.00 0.00 88 1014.3
20260504221730 54 276 0.0 1.7 0.00 0.00 0.00 88 1014.3
20260504221226 54 314 0.0 2.6 0.00 0.00 0.00 89 1014.3
20260504220720 54 285 0.0 2.6 0.00 0.00 0.00 88 1014.5
20260504220216 54 293 0.0 0.9 0.00 0.00 0.00 89 1014.5
20260504215708 54 286 0.0 0.9 0.00 0.00 0.00 89 1014.5
20260504215205 54 289 0.0 0.9 0.00 0.00 0.00 89 1014.6
20260504214953 54 277 0.0 1.7 0.00 0.00 0.00 89 1014.6
20260504214205 54 68 0.0 1.7 0.00 0.00 0.00 89 1014.6
20260504213705 54 298 0.0 1.7 0.00 0.00 0.00 89 1014.6
20260504213205 54 74 0.0 1.7 0.00 0.00 0.00 89 1014.6
20260504212705 55 301 0.0 1.7 0.00 0.00 0.00 89 1014.7
20260504212205 55 309 0.0 1.7 0.00 0.00 0.00 89 1014.7
20260504211705 55 287 0.0 1.7 0.00 0.00 0.00 89 1014.7
20260504211512 55 312 0.0 1.7 0.00 0.00 0.00 89 1014.7
20260504210702 55 285 0.0 1.7 0.00 0.00 0.00 89 1014.6
20260504210203 55 287 0.0 2.6 0.00 0.00 0.00 89 1014.7
20260504205927 55 296 0.0 2.6 0.00 0.00 0.00 89 1014.7
20260504205423 55 303 0.0 2.6 0.00 0.00 0.00 89 1014.7
20260504204710 55 309 0.0 0.9 0.00 0.00 0.00 89 1014.7
20260504204203 55 302 0.0 2.6 0.00 0.00 0.00 89 1014.6
20260504203949 55 303 0.0 2.6 0.00 0.00 0.00 89 1014.7
20260504203205 55 309 0.0 2.6 0.00 0.00 0.00 89 1014.6
20260504202702 56 316 0.0 2.6 0.00 0.00 0.00 89 1014.6
20260504202216 56 297 0.0 2.6 0.00 0.00 0.00 89 1014.6
20260504201956 56 286 0.0 2.6 0.00 0.00 0.00 89 1014.6
20260504201214 56 291 0.0 2.6 0.00 0.00 0.00 89 1014.5
20260504200704 56 301 0.0 1.7 0.00 0.00 0.00 89 1014.5
20260504200205 56 298 0.0 2.6 0.00 0.00 0.00 89 1014.6
20260504195704 56 326 0.0 2.6 0.00 0.00 0.00 89 1014.5
20260504195209 56 235 0.0 2.6 0.00 0.00 0.00 88 1014.4
20260504194705 56 297 0.0 2.6 0.00 0.00 0.00 88 1014.4
20260504194204 56 294 0.0 0.9 0.00 0.00 0.00 88 1014.4
20260504193706 56 299 0.0 3.5 0.00 0.00 0.00 88 1014.2
20260504193446 57 293 0.0 3.5 0.00 0.00 0.00 89 1014.3
20260504192704 57 280 0.0 1.7 0.00 0.00 0.00 89 1014.2
20260504192204 57 287 0.0 1.7 0.00 0.00 0.00 88 1014.1
20260504191704 57 311 0.0 1.7 0.00 0.00 0.00 88 1014.2
20260504191450 57 253 0.0 3.5 0.00 0.00 0.00 88 1014.2
20260504190708 57 318 0.0 3.5 0.00 0.00 0.00 88 1014.2
20260504190205 57 297 0.0 2.6 0.00 0.00 0.00 88 1014.2
20260504185707 58 318 0.0 2.6 0.00 0.00 0.00 88 1014.2
20260504185212 58 308 0.0 2.6 0.00 0.00 0.00 88 1014.2
20260504184708 58 265 0.0 2.6 0.00 0.00 0.00 88 1014.2
20260504184443 58 292 0.0 1.7 0.00 0.00 0.00 88 1014.2
20260504183706 58 262 0.0 2.6 0.00 0.00 0.00 88 1014.2
20260504183202 58 289 0.9 3.5 0.00 0.00 0.00 88 1014.2
20260504183003 58 297 0.9 3.5 0.00 0.00 0.00 88 1014.2
20260504182202 58 280 0.9 2.6 0.00 0.00 0.00 88 1014.1
20260504181702 58 275 0.0 2.6 0.00 0.00 0.00 87 1014.2
20260504181204 58 292 0.0 2.6 0.00 0.00 0.00 87 1014.1
20260504180928 58 293 0.9 2.6 0.00 0.00 0.00 87 1014.1
20260504180204 58 304 0.0 2.6 0.00 0.00 0.00 87 1014.0
20260504175957 59 316 0.0 2.6 0.00 0.00 0.00 88 1014.1
20260504175514 59 308 0.9 3.5 0.00 0.00 0.00 88 1014.0
20260504174715 59 282 0.9 4.3 0.00 0.00 0.00 87 1014.0
20260504174204 59 327 0.9 4.3 0.00 0.00 0.00 87 1014.1
20260504174026 59 282 0.9 3.5 0.00 0.00 0.00 87 1014.0
20260504173218 59 313 0.0 3.5 0.00 0.00 0.00 87 1014.0
20260504172703 59 260 0.9 3.5 0.00 0.00 0.00 87 1014.0
20260504172219 59 310 0.9 3.5 0.00 0.00 0.00 87 1014.0
20260504172041 60 299 0.9 6.1 0.00 0.00 0.00 87 1014.0
20260504172037 60 310 0.0 2.6 0.00 0.00 0.00 87 1014.1
20260504170659 60 259 0.9 6.1 0.00 0.00 0.00 87 1014.0
20260504170158 60 297 0.0 5.2 0.00 0.00 0.00 87 1014.1
20260504160155 62 310 0.9 3.5 0.00 0.01 0.00 84 1014.1
20260504150650 63 297 0.0 2.6 0.00 0.01 0.00 83 1014.0
20260504150151 63 298 0.0 2.6 0.00 0.01 0.00 83 1014.0
20260504141140 64 299 0.9 3.5 0.00 0.01 0.00 81 1014.2
20260504140640 64 294 0.0 2.6 0.00 0.01 0.00 81 1014.2
20260504140138 64 306 0.0 3.5 0.00 0.01 0.00 81 1014.2